Location: Unspecified
(0.0000°N, 0.0000°E)
Time: 16:20:43
(UTC+00:00)

A-11 Canister half - Pass Details

Date: 25 November 2019
Orbit: 1526 x 1683 km, 47.3° (Epoch: 12 December)

Event Time Altitude Azimuth Distance (km) Brightness Sun altitude
Rises 16:50:46 0° 349° (NNW) 4,742 11.5 13.1°
Reaches altitude 10° 16:55:18 10° 7° (N) 3,732 10.8 12.1°
Maximum altitude 17:01:08 18° 46° (NE) 3,127 10.2 10.7°
Drops below altitude 10° 17:06:53 10° 85° (E) 3,693 10.4 9.4°
Sets 17:11:16 0° 103° (ESE) 4,671 11.0 8.3°
